Temperature
18 18 18 18 18 18 18 18 18 17 17 17 18 17 17 17 17 17 17 17 17 17 17 17 17 17 17 17 17 17 16 16 16 16 16 16 16 16 16 16 16 16 16
18 18 18 18 18 18 18 18 17 17 17 17 17 17 17 17 17 17 17 17 17 17 17 17 17 17 17 17 17 17 16 16 16 16 16 16 16 16 16 16 16 16 16
18 18 18 18 18 18 18 18 17 18 18 18 17 17 17 17 17 17 17 17 17 17 17 17 17 17 17 17 17 17 17 16 16 16 16 16 16 16 16 16 16 16 16
18 18 18 18 18 18 18 18 18 18 18 18 17 17 17 17 17 17 17 17 17 17 17 17 17 17 17 17 16 17 17 16 16 16 16 16 16 16 16 16 16 16 16
18 18 18 18 18 18 18 18 18 18 18 17 17 17 17 17 17 17 17 17 17 17 17 17 17 17 17 17 16 16 16 16 16 16 16 16 16 16 16 16 16 16 16
18 18 18 18 18 18 18 18 17 17 17 18 18 18 18 17 17 17 17 17 17 17 16 16 16 16 17 17 16 16 16 16 16 16 16 16 16 16 16 16 16 16 16
18 18 18 18 18 18 18 18 18 18 18 18 18 18 18 18 18 17 17 17 17 17 16 16 16 16 16 16 16 16 16 16 16 16 16 16 16 16 16 16 16 16 16
18 18 18 18 18 18 18 17 17 18 18 18 18 18 18 18 18 18 17 17 17 17 16 16 16 16 16 16 16 16 16 16 16 16 16 16 16 16 16 16 16 15 15
18 18 18 18 18 18 18 18 17 17 18 18 18 18 19 19 18 18 17 17 17 17 16 16 16 16 16 16 16 16 16 16 16 16 16 16 16 16 16 16 16 15 15
18 18 18 18 18 18 18 18 17 17 17 18 18 18 18 18 18 18 18 17 17 16 16 16 16 16 16 16 16 16 16 16 16 16 16 16 16 16 16 15 15 15 15
18 18 18 18 18 18 18 18 18 17 17 18 18 18 17 17 18 18 18 18 17 17 16 16 16 16 16 15 16 16 16 16 16 16 16 16 16 16 15 15 15 15 15
18 18 18 18 18 18 18 18 17 17 17 17 17 18 18 18 18 18 18 18 17 17 16 16 16 16 16 15 16 16 16 16 16 16 16 16 15 15 15 15 15 15 15
18 18 18 18 18 18 18 17 18 17 17 17 17 17 17 17 17 18 18 18 17 17 16 16 16 16 16 15 16 16 16 16 16 16 16 16 15 15 15 15 15 15 15
18 18 18 18 18 18 17 17 17 17 17 17 17 17 17 17 17 17 17 17 18 18 17 16 16 16 16 15 15 15 15 16 16 16 15 15 15 15 15 15 15 15 15
18 18 18 18 18 18 17 17 17 17 17 17 17 17 17 17 17 17 17 17 17 17 17 16 16 16 16 15 15 15 15 15 15 15 15 15 15 15 15 15 15 15 15
18 18 18 18 18 17 17 17 16 17 16 16 16 16 16 17 16 16 16 16 16 17 17 17 16 16 15 15 15 15 15 15 15 15 15 15 15 15 15 15 15 15 15
18 18 18 18 17 17 17 17 16 16 16 16 16 16 16 16 16 16 16 16 16 16 16 16 16 15 15 15 15 15 15 15 15 15 15 15 15 15 15 14 14 14 14
18 18 17 17 17 17 17 16 16 16 16 16 16 16 15 15 15 16 16 16 16 15 16 15 15 15 15 15 15 15 15 15 15 15 15 15 15 15 14 14 14 14 14
18 18 17 17 17 17 16 16 16 16 16 15 15 15 15 15 15 15 15 15 15 15 15 15 15 15 15 15 15 15 15 15 14 15 15 15 15 14 14 14 14 14 14
18 18 18 17 17 17 16 16 16 16 16 15 15 15 15 15 15 15 15 15 15 15 15 15 15 15 15 15 14 14 14 14 14 14 14 14 14 14 14 14 14 14 14
17 18 17 17 17 17 16 16 16 16 15 15 15 15 15 15 15 15 15 15 15 15 15 15 15 15 15 14 14 14 14 14 14 14 14 14 14 14 14 14 14 14 14
17 17 17 17 16 16 16 16 16 15 15 15 15 15 15 15 15 15 15 15 15 14 15 15 15 15 14 14 14 14 14 14 14 14 14 14 14 14 13 13 13 13 13
17 17 17 17 16 16 16 16 16 16 15 15 15 15 15 15 15 14 15 15 15 15 15 14 14 14 14 14 14 14 14 14 14 14 13 14 14 14 13 13 13 13 13
17 17 17 16 16 16 16 16 16 16 15 15 15 15 15 14 14 14 14 14 14 14 14 14 14 14 14 14 14 14 13 13 13 13 13 13 13 13 13 13 13 13 13
17 16 16 16 16 16 16 16 16 15 15 15 15 14 14 14 14 14 14 14 14 14 14 14 14 14 14 14 13 13 13 13 14 14 13 13 13 13 13 13 13 13 13
16 16 16 16 16 16 16 16 15 15 14 14 14 14 14 14 14 14 14 14 14 14 13 14 14 14 14 14 13 13 13 13 13 14 13 13 13 13 13 13 12 12 12
Wind_Speed
3 3 3 3 3 4 4 4 3 4 3 3 3 3 2 1 1 2 4 6 5 3 3 3 4 4 4 5 6 6 6 7 7 7 7 7 7 8 8 8 9 9 8
2 2 3 3 3 3 3 3 4 3 2 2 2 2 1 2 1 1 2 6 6 4 3 3 3 3 3 4 5 6 6 6 6 7 7 8 8 8 7 7 7 8 8
2 1 2 2 3 3 4 3 4 3 3 3 2 2 2 2 2 2 1 2 4 6 5 3 3 3 3 4 4 5 6 7 7 7 7 7 7 7 7 7 7 8 8
2 1 1 2 3 3 3 3 2 2 2 2 2 2 2 2 2 2 3 2 1 2 5 5 4 3 3 2 3 4 5 7 7 8 8 7 8 8 8 7 7 7 7
1 1 1 2 2 2 2 2 2 2 2 2 3 3 2 2 2 3 2 2 2 1 2 5 6 5 3 2 2 2 4 5 6 7 8 8 8 8 9 9 8 7 7
1 1 2 1 1 2 2 1 2 1 2 2 2 1 2 2 2 2 3 3 3 2 2 1 4 5 5 3 2 3 4 4 5 6 8 8 9 9 9 9 9 9 9
2 1 1 2 1 1 1 2 2 3 2 2 2 2 3 3 2 2 2 2 2 2 1 1 2 1 4 6 3 2 3 4 4 5 6 8 9 9 10 10 10 10 10
2 2 1 2 1 1 2 2 2 2 2 2 2 2 2 3 3 2 2 2 2 1 1 2 1 0 1 2 4 2 3 4 4 5 6 6 8 8 9 10 10 10 10
2 1 1 1 1 2 1 2 2 3 2 2 2 2 2 1 1 3 2 2 2 1 1 1 1 1 1 1 1 2 2 3 4 5 5 6 7 8 9 9 10 10 10
2 2 2 2 2 1 1 3 2 3 3 2 2 2 2 2 2 1 3 3 2 2 2 2 2 2 2 2 1 1 1 2 4 4 5 5 6 7 9 10 10 10 10
2 2 3 2 2 2 1 2 1 3 2 3 2 2 2 3 4 3 2 2 2 2 2 2 2 2 2 3 2 1 2 2 4 4 4 4 4 5 7 8 9 9 9
2 2 3 2 2 2 2 2 3 3 2 2 3 3 3 2 2 3 3 3 2 2 2 2 2 2 3 2 2 2 3 3 3 3 3 3 3 4 5 6 7 8 8
2 2 2 2 2 2 2 3 3 2 3 3 3 3 3 3 2 3 3 3 2 2 2 3 3 3 3 2 2 3 3 4 4 4 4 4 4 4 4 5 6 6 7
2 2 2 3 3 3 3 2 3 3 3 3 4 3 3 3 3 3 4 4 4 3 3 2 2 2 2 2 1 4 3 4 5 5 5 5 5 5 6 6 7 7 7
3 3 3 3 3 3 3 3 3 3 3 4 3 4 3 2 3 3 4 4 4 4 2 2 2 2 2 2 2 3 3 4 6 7 6 6 6 6 6 7 7 7 7
3 3 4 4 3 3 3 4 4 3 3 3 2 2 3 3 3 3 3 4 4 4 3 2 1 1 1 2 3 4 4 4 6 7 7 6 6 6 7 7 7 7 7
4 4 4 4 4 4 4 4 4 3 4 3 3 3 3 3 3 3 3 4 4 4 4 3 2 1 2 4 2 4 5 5 5 8 8 7 7 7 7 7 7 7 8
5 4 4 4 4 5 5 5 4 4 4 5 5 4 4 3 3 4 3 4 4 4 5 4 3 3 3 3 3 5 5 5 4 6 9 8 8 8 8 8 7 8 8
5 5 5 4 4 4 5 5 5 5 5 5 5 5 5 4 4 4 5 4 4 4 4 5 5 3 3 3 3 4 5 4 5 5 8 9 10 10 9 9 9 8 8
6 5 5 5 5 5 5 6 6 6 6 6 5 5 5 5 5 5 5 5 5 5 4 6 5 4 3 3 4 4 4 4 5 4 4 5 8 11 11 11 10 9 9
6 6 5 5 5 5 5 5 6 6 6 5 5 5 5 4 3 4 4 4 4 5 5 5 5 4 4 3 4 4 4 4 4 4 4 5 5 6 7 11 12 10 10
5 5 5 5 5 4 2 3 5 5 5 5 5 5 5 5 5 5 4 5 5 6 5 5 5 5 5 5 4 5 5 4 4 3 5 5 4 5 5 5 6 8 9
5 5 5 5 4 3 4 4 5 5 5 5 5 5 6 4 5 5 6 8 8 7 7 7 7 7 6 5 5 6 5 6 6 4 4 5 4 5 4 3 7 8 9
5 5 5 4 4 3 4 4 4 6 6 6 6 6 5 4 4 4 6 6 6 6 7 7 7 7 7 5 6 7 6 6 7 5 4 6 5 6 5 3 8 9 9
4 4 4 4 4 3 3 4 4 5 5 6 6 5 5 5 2 3 6 6 6 6 6 6 6 6 6 5 6 6 5 6 6 5 4 6 6 6 5 5 5 10 10
3 3 3 2 3 3 3 4 5 4 4 4 4 5 4 4 2 3 5 6 6 6 6 5 6 7 8 8 9 8 7 7 7 6 3 5 6 5 5 4 4 5 7
Wind_Direction
107 112 114 130 133 127 140 141 133 132 143 151 144 135 137 132 160 165 140 149 171 197 207 205 211 213 209 207 209 206 204 200 202 202 200 200 198 196 199 207 211 212 209
103 121 131 133 133 133 119 133 138 139 140 127 136 137 175 164 144 208 157 152 164 184 205 211 211 210 212 211 208 207 208 207 203 205 207 206 204 200 201 203 202 206 211
114 137 119 145 135 140 145 148 145 146 153 155 155 162 175 178 172 189 201 190 169 176 182 191 206 220 219 216 216 211 208 202 201 200 203 203 199 201 203 200 205 210 214
144 173 142 141 151 159 150 150 168 158 153 163 157 175 172 165 178 186 191 189 196 171 165 172 186 198 208 218 218 213 204 200 199 200 202 205 203 204 202 203 205 209 213
151 191 143 112 176 159 153 178 147 169 169 188 181 178 186 185 185 186 182 181 172 194 190 158 170 175 181 204 207 204 209 210 207 207 212 213 212 212 211 210 210 210 214
150 199 151 150 198 157 151 143 153 168 199 208 214 171 188 186 191 183 207 190 184 198 223 203 181 175 180 195 218 222 220 221 220 218 221 219 219 217 217 214 214 215 216
159 197 150 154 215 152 191 193 187 182 204 205 204 194 196 198 195 196 213 220 192 195 195 213 230 222 175 178 190 213 222 227 228 225 227 225 224 223 220 218 220 217 218
193 180 187 211 197 184 200 205 205 228 198 197 241 241 212 187 191 193 196 202 225 219 204 200 177 180 283 165 142 177 239 240 239 232 229 225 223 220 219 217 219 220 220
196 207 206 240 243 244 202 226 221 225 218 206 230 266 276 272 167 168 193 195 216 243 236 201 199 195 238 261 190 176 228 238 242 241 238 233 229 220 217 215 217 220 220
204 207 216 233 254 251 223 241 213 242 239 225 207 239 273 306 284 226 186 169 187 218 242 247 218 192 216 233 211 62 175 234 243 243 241 240 240 228 222 218 220 221 222
212 220 219 230 246 254 250 260 251 258 240 250 246 234 226 230 243 263 254 225 206 212 212 223 232 220 213 224 229 183 183 228 240 241 243 242 247 231 219 217 222 223 221
208 210 216 230 241 255 244 247 249 238 252 266 270 260 248 244 245 248 256 254 246 229 223 226 233 230 227 225 224 147 196 219 233 243 243 248 252 242 222 222 228 229 228
212 198 225 234 247 244 242 242 235 251 243 245 253 260 263 267 277 272 270 273 264 246 225 226 225 231 228 227 215 190 209 220 226 236 242 244 241 242 232 228 234 236 234
232 209 229 236 240 239 242 235 236 231 231 236 244 255 257 255 260 263 270 277 272 251 217 235 229 224 229 232 222 205 216 203 220 229 234 236 237 235 231 232 234 235 238
224 217 229 234 238 235 243 244 238 231 227 233 233 225 243 247 252 259 261 267 274 277 265 217 237 224 233 226 225 236 246 199 212 224 229 232 234 235 234 237 240 236 235
229 225 229 233 233 229 226 231 226 220 220 223 240 258 264 261 259 256 253 255 260 268 274 275 249 253 290 265 213 245 249 205 206 212 220 229 233 239 239 240 240 239 237
223 224 226 223 222 221 220 219 230 214 219 226 233 230 238 263 258 252 251 255 255 258 262 267 269 259 250 267 264 258 253 246 220 203 214 226 233 236 238 238 238 239 239
216 216 219 217 217 216 215 213 220 218 224 229 231 231 236 238 245 259 259 257 258 255 258 264 264 255 244 245 255 261 260 255 254 189 203 219 226 229 232 233 235 237 237
211 213 210 212 217 221 216 212 213 215 221 233 235 233 237 240 248 255 258 259 257 253 254 257 260 257 254 252 251 256 257 261 258 209 200 214 220 223 225 227 230 235 238
206 209 211 212 213 222 223 218 213 216 221 229 234 236 239 237 240 249 251 255 260 261 255 258 262 259 251 251 257 264 262 251 263 256 238 230 214 217 221 223 226 230 236
205 207 208 211 215 219 225 222 219 218 219 225 228 234 238 236 256 262 268 263 260 257 254 254 261 262 258 257 264 269 274 269 258 255 259 243 223 227 218 218 218 223 229
204 204 210 215 219 221 172 199 226 222 219 224 233 240 233 220 224 229 256 272 277 265 269 269 267 270 267 263 268 272 278 276 273 257 262 262 253 250 242 232 191 209 226
196 204 210 212 214 204 174 192 221 223 222 229 237 245 251 228 223 239 227 227 240 245 255 266 276 280 278 269 267 265 268 274 278 277 268 268 264 262 253 216 173 201 221
202 208 212 214 209 195 173 193 219 223 229 235 237 237 245 250 251 256 254 250 252 244 238 247 263 272 277 280 264 266 269 262 261 252 251 269 267 268 262 237 179 192 212
201 207 207 209 207 190 163 186 216 225 226 235 240 237 240 243 240 255 252 255 261 261 234 230 257 268 282 269 261 263 263 264 269 260 242 265 272 275 268 253 204 195 211
194 204 197 197 196 202 176 184 219 226 229 237 239 234 231 253 259 255 254 259 263 268 273 254 242 242 245 234 222 242 260 267 275 273 250 255 270 275 272 259 252 233 226
Height
1545 1546 1546 1547 1549 1550 1551 1552 1553 1554 1555 1556 1557 1557 1558 1558 1559 1560 1559 1558 1558 1558 1559 1558 1558 1558 1558 1558 1559 1559 1559 1559 1560 1561 1561 1562 1562 1563 1564 1565 1566 1567 1568
1546 1547 1547 1547 1549 1550 1552 1552 1554 1554 1555 1556 1556 1557 1557 1558 1558 1559 1559 1558 1558 1558 1558 1557 1557 1557 1557 1557 1558 1558 1558 1558 1558 1559 1559 1560 1561 1561 1562 1563 1563 1564 1565
1547 1547 1548 1548 1549 1550 1551 1553 1554 1555 1555 1556 1556 1557 1557 1557 1558 1558 1558 1559 1558 1557 1557 1557 1556 1556 1556 1556 1556 1556 1556 1556 1556 1557 1557 1558 1558 1559 1560 1561 1561 1562 1563
1548 1548 1548 1548 1549 1551 1552 1552 1554 1554 1555 1556 1556 1556 1557 1556 1557 1557 1557 1557 1557 1558 1557 1556 1555 1555 1555 1555 1554 1554 1554 1554 1554 1555 1555 1555 1556 1557 1557 1558 1559 1560 1561
1548 1549 1549 1549 1549 1551 1552 1553 1553 1554 1554 1555 1556 1556 1556 1556 1556 1556 1556 1556 1556 1556 1556 1555 1554 1554 1553 1553 1553 1552 1552 1552 1552 1552 1553 1553 1554 1554 1555 1556 1556 1557 1558
1549 1549 1549 1549 1550 1551 1551 1552 1552 1552 1553 1554 1555 1555 1555 1555 1555 1555 1555 1555 1555 1555 1555 1555 1554 1553 1552 1552 1551 1551 1550 1550 1550 1550 1550 1551 1551 1552 1552 1553 1554 1554 1555
1549 1549 1550 1549 1550 1550 1550 1551 1552 1552 1553 1553 1554 1554 1554 1554 1554 1554 1554 1554 1554 1554 1553 1553 1553 1553 1552 1550 1549 1549 1548 1548 1548 1548 1548 1548 1549 1549 1550 1550 1551 1552 1552
1549 1549 1549 1550 1550 1550 1550 1550 1550 1551 1552 1552 1553 1553 1553 1554 1553 1553 1553 1553 1553 1553 1552 1552 1551 1550 1550 1550 1548 1547 1546 1546 1546 1546 1546 1546 1546 1546 1547 1547 1548 1549 1550
1548 1548 1548 1549 1549 1550 1550 1549 1550 1550 1551 1551 1551 1552 1552 1551 1552 1552 1552 1551 1551 1551 1551 1551 1550 1549 1549 1548 1547 1545 1544 1544 1544 1544 1543 1543 1542 1542 1543 1544 1545 1546 1547
1548 1548 1548 1548 1548 1549 1548 1548 1549 1549 1549 1550 1550 1550 1550 1550 1551 1551 1551 1550 1550 1549 1549 1549 1549 1548 1547 1546 1545 1544 1543 1542 1542 1541 1541 1540 1539 1539 1539 1540 1542 1543 1544
1547 1547 1547 1547 1547 1547 1547 1547 1547 1547 1548 1549 1549 1549 1549 1549 1549 1549 1549 1549 1549 1548 1548 1547 1547 1547 1546 1545 1544 1543 1542 1541 1540 1539 1538 1537 1536 1536 1536 1537 1539 1540 1541
1546 1546 1545 1545 1545 1546 1545 1545 1546 1546 1546 1546 1547 1547 1548 1547 1547 1547 1547 1547 1547 1547 1546 1546 1545 1545 1544 1543 1542 1541 1540 1539 1538 1537 1536 1535 1534 1534 1534 1536 1537 1537 1538
1544 1544 1544 1544 1544 1543 1543 1544 1543 1544 1544 1544 1545 1545 1546 1546 1546 1546 1546 1545 1545 1545 1544 1544 1543 1543 1542 1542 1540 1539 1538 1537 1536 1535 1534 1534 1533 1533 1533 1534 1534 1535 1535
1543 1542 1542 1542 1542 1542 1542 1542 1542 1542 1542 1543 1543 1543 1543 1544 1544 1544 1544 1544 1543 1543 1543 1542 1542 1541 1540 1540 1538 1537 1536 1535 1535 1533 1533 1533 1532 1532 1532 1532 1532 1532 1533
1540 1540 1540 1540 1540 1540 1540 1540 1540 1540 1540 1541 1542 1541 1541 1542 1542 1542 1542 1542 1542 1541 1541 1540 1540 1539 1538 1537 1536 1535 1535 1533 1533 1532 1531 1531 1530 1530 1530 1530 1530 1530 1530
1537 1537 1537 1537 1537 1537 1537 1537 1538 1537 1538 1539 1539 1539 1539 1540 1540 1539 1539 1539 1539 1539 1538 1538 1537 1537 1536 1536 1534 1533 1532 1531 1530 1530 1529 1529 1528 1528 1528 1528 1527 1527 1527
1534 1534 1534 1534 1534 1534 1535 1535 1536 1536 1536 1536 1537 1537 1537 1537 1537 1537 1537 1537 1537 1537 1536 1535 1535 1534 1533 1532 1532 1531 1531 1529 1529 1527 1527 1526 1526 1525 1525 1525 1524 1524 1524
1531 1531 1531 1530 1531 1531 1532 1532 1532 1533 1534 1534 1535 1535 1535 1535 1534 1535 1535 1535 1534 1534 1534 1533 1532 1532 1530 1530 1529 1528 1528 1528 1526 1525 1524 1523 1523 1522 1522 1522 1521 1521 1521
1528 1528 1528 1528 1528 1529 1529 1529 1530 1530 1531 1531 1532 1532 1532 1532 1532 1532 1532 1532 1532 1532 1531 1531 1530 1529 1528 1528 1526 1526 1525 1524 1524 1523 1521 1520 1520 1519 1519 1518 1518 1518 1517
1525 1525 1526 1525 1525 1525 1526 1527 1527 1527 1528 1528 1529 1529 1529 1529 1529 1529 1529 1529 1529 1529 1529 1528 1528 1527 1526 1525 1524 1524 1523 1522 1521 1520 1519 1517 1516 1516 1515 1515 1514 1514 1513
1522 1522 1522 1523 1523 1523 1523 1524 1524 1525 1525 1526 1526 1526 1526 1526 1526 1526 1527 1527 1527 1526 1526 1526 1525 1524 1524 1523 1522 1521 1520 1519 1518 1517 1516 1515 1514 1513 1512 1511 1510 1510 1509
1519 1519 1519 1520 1520 1520 1520 1520 1521 1521 1522 1523 1523 1523 1523 1523 1523 1523 1523 1523 1523 1523 1523 1523 1523 1522 1521 1520 1519 1518 1518 1516 1515 1515 1513 1512 1512 1510 1509 1508 1506 1506 1505
1516 1516 1516 1516 1516 1517 1517 1517 1517 1518 1519 1520 1520 1520 1521 1521 1520 1520 1520 1520 1520 1519 1519 1519 1519 1519 1518 1517 1516 1515 1514 1513 1512 1511 1510 1509 1508 1507 1506 1505 1503 1502 1502
1513 1513 1514 1514 1514 1514 1514 1514 1514 1515 1516 1516 1517 1517 1517 1518 1518 1517 1517 1517 1517 1516 1516 1515 1514 1514 1515 1513 1512 1511 1510 1509 1508 1507 1507 1506 1505 1504 1503 1501 1500 1499 1498
1510 1511 1511 1511 1511 1511 1511 1511 1511 1512 1512 1513 1514 1514 1514 1514 1514 1514 1513 1513 1513 1513 1513 1512 1511 1510 1510 1509 1508 1508 1507 1507 1506 1505 1503 1503 1501 1500 1499 1498 1496 1495 1494
1507 1508 1508 1509 1509 1509 1509 1509 1509 1510 1510 1511 1511 1511 1510 1510 1510 1510 1510 1510 1509 1509 1509 1508 1507 1506 1506 1505 1504 1504 1503 1503 1502 1501 1500 1499 1498 1497 1496 1495 1493 1492 1491